Location: Alexandria
(38.8050°N, 77.0470°W)
Time: 18:16:08
(UTC-05:00)

Vanguard 2 - Visible Passes

Search period start: 18 November 2017 00:00
Search period end: 28 November 2017 00:00
Orbit: 553 x 2940 km, 32.9° (Epoch: 18 November)

Date Brightness Start Highest point End Pass type
(mag) Time Alt. Az. Time Alt. Az. Time Alt. Az.
18 Nov 10.9 01:39:41 32° ESE 01:39:41 32° ESE 01:47:20 10° E visible
18 Nov 9.9 03:41:08 58° SW 03:42:59 60° SSW 04:00:12 10° ESE visible
18 Nov 10.9 05:42:33 14° W 05:54:33 38° SSW 06:09:56 10° SSE visible
19 Nov 10.7 01:56:50 37° ESE 01:56:50 37° ESE 02:05:41 10° ESE visible
19 Nov 10.0 03:58:16 49° SW 04:01:10 54° SSW 04:18:03 10° SE visible
19 Nov 11.1 05:59:52 10° W 06:12:29 30° SW 06:26:36 10° SSE visible
20 Nov 10.5 02:14:00 41° ESE 02:14:00 41° ESE 02:23:57 10° ESE visible
20 Nov 10.2 04:15:26 41° SW 04:19:18 47° SSW 04:35:39 10° SE visible
20 Nov 11.2 06:19:12 10° W 06:30:23 23° SW 06:42:40 10° S visible
21 Nov 10.4 02:31:12 44° SE 02:31:12 44° SE 02:42:06 10° ESE visible
21 Nov 10.4 04:32:38 33° WSW 04:37:25 40° SSW 04:52:56 10° SSE visible
22 Nov 11.7 00:46:59 11° E 00:46:59 11° E 00:47:18 10° E visible
22 Nov 10.3 02:48:25 45° SSE 02:48:25 45° SSE 03:00:04 10° SE visible
22 Nov 10.6 04:49:51 26° WSW 04:55:29 32° SSW 05:09:50 10° SSE visible
23 Nov 11.5 01:04:13 13° ESE 01:04:13 13° ESE 01:05:36 10° ESE visible
23 Nov 10.3 03:05:39 43° S 03:05:39 43° S 03:17:49 10° SE visible
23 Nov 10.8 05:07:05 19° WSW 05:13:31 25° SSW 05:26:12 10° SSE visible
24 Nov 11.4 01:21:28 16° ESE 01:21:28 16° ESE 01:23:48 10° ESE visible
24 Nov 10.4 03:22:54 39° S 03:22:54 39° S 03:35:16 10° SE visible
24 Nov 11.1 05:24:20 13° WSW 05:31:33 19° SW 05:41:46 10° S visible
25 Nov 11.3 01:38:43 18° SE 01:38:43 18° SE 01:41:52 10° ESE visible
25 Nov 10.5 03:40:09 33° SSW 03:40:09 33° SSW 03:52:22 10° SSE visible
25 Nov 11.3 05:44:12 10° WSW 05:49:36 13° SW 05:55:30 10° SSW visible
26 Nov 11.2 01:55:59 19° SE 01:55:59 19° SE 01:59:43 10° SE visible
26 Nov 10.7 03:57:25 26° SSW 03:57:25 26° SSW 04:08:59 10° SSE visible
27 Nov 11.2 02:13:15 20° SE 02:13:15 20° SE 02:17:19 10° SE visible
27 Nov 10.9 04:14:41 19° SW 04:15:09 19° SSW 04:24:51 10° S visible
